Retour au catalogue

SITRO-AIS-17

ActifNavigationSSO
NORAD 61789·PAYLOAD·🇷🇺 Russia
Ce nom de satellite n'a pas encore été confirmé par des sources officielles.

Lancé Nov 4, 2024 depuis Vostochny Cosmodrome

Loading…

Prochains Passages (prochaines 24 heures)

TLE

FraisSource: Space-Track

Époque: Sep 14, 2026, 14:15 UTC

1 61789U 24199BG  26257.59385904  .00001568  00000-0  13613-3 0  9998
2 61789  97.3189  91.6983 0006730 123.6722 236.5144 14.98323309145428

Suivez SITRO-AIS-17 en temps réel avec AllMySat

Download on the App Store